STARLINK-34555

Last updated on Sat Jul 19 2025 00:02:07 GMT+0000 (Coordinated Universal Time)

1 64665U 25139B 25199.58335648 -.01655848 00000+0 -33696-1 0 9991 2 64665 53.1592 138.1906 0000944 86.9861 91.1385 15.48915760 4273
UTC large
Height (km)
Speed (km/s)
/
Latitude / Longitude
Inclination (degrees)
Orbital Period (minutes)
Azimuth
Elevation
Range (km)
Doppler Factor

Next 0 passes for location: London (51.5072 / 0.1276)

Sorry there are no passes over London.